Powrót do katalogu

STARLINK-4659

AktywnyŁącznośćVLEO
NORAD 54841·PAYLOAD·🇺🇸 United States

Wystrzelony Dec 28, 2022 z Cape Canaveral Space Force Station

Loading…

Następne Przeloty (najbliższe 24 godziny)

TLE

ŚwieżeSource: CelesTrak SupGP

Epoka: Sep 14, 2026, 20:38 UTC

1 54841C 22177X   26257.86020833 -.00023342  00000+0 -84550-3 0  2570
2 54841  43.0024 144.5810 0001403 262.1531  21.6350 15.27588256    15

Śledź STARLINK-4659 w czasie rzeczywistym z AllMySat

Download on the App Store